contact:dominique.lefevre@mio.osupytheas.fr, maurice.libes@osupytheas.fr, didier.mallarino@osupytheas.fr
Project:EMSO http://www.emso-fr.org/EMSO-France
Depth: 2436.0 m
Title:EMSO Ligure Ouest : Data MII capteur MICROCAT
DateTime_Computer,Latitude,Longitude,Temperature,Conductivity,Pressure,DateTime_Instrument
DateTime_Computer,Latitude,Longitude,degC,S m-1,dbar,DateTime_Instrument
2020-06-10T00:02:45Z,42.805,6.029,13.2976,4.59996,2470.264,2020-6-10T02:03:29Z
2020-06-10T00:05:48Z,42.805,6.029,13.2974,4.59989,2470.217,2020-6-10T02:06:32Z
2020-06-10T00:08:52Z,42.805,6.029,13.2979,4.59994,2470.264,2020-6-10T02:09:36Z
2020-06-10T00:11:55Z,42.805,6.029,13.2973,4.59994,2470.227,2020-6-10T02:12:39Z
2020-06-10T00:14:58Z,42.805,6.029,13.2980,4.59994,2470.25,2020-6-10T02:15:42Z
2020-06-10T00:18:01Z,42.805,6.029,13.2982,4.59986,2470.227,2020-6-10T02:18:45Z
2020-06-10T00:21:04Z,42.805,6.029,13.2975,4.59988,2470.24,2020-6-10T02:21:48Z
2020-06-10T00:24:08Z,42.805,6.029,13.2971,4.59986,2470.25,2020-6-10T02:24:52Z
2020-06-10T00:27:11Z,42.805,6.029,13.2975,4.59992,2470.203,2020-6-10T02:27:55Z
2020-06-10T00:30:14Z,42.805,6.029,13.2974,4.59996,2470.203,2020-6-10T02:30:58Z
2020-06-10T00:33:18Z,42.805,6.029,13.2979,4.59988,2470.25,2020-6-10T02:34:02Z
2020-06-10T00:36:21Z,42.805,6.029,13.2971,4.59990,2470.203,2020-6-10T02:37:05Z
2020-06-10T00:39:24Z,42.805,6.029,13.2973,4.59988,2470.217,2020-6-10T02:40:08Z
2020-06-10T00:42:27Z,42.805,6.029,13.2975,4.59991,2470.24,2020-6-10T02:43:11Z
2020-06-10T00:45:31Z,42.805,6.029,13.2971,4.59999,2470.18,2020-6-10T02:46:14Z
2020-06-10T00:48:34Z,42.805,6.029,13.2980,4.59986,2470.203,2020-6-10T02:49:18Z
2020-06-10T00:51:37Z,42.805,6.029,13.2980,4.59986,2470.203,2020-6-10T02:52:21Z
2020-06-10T00:54:40Z,42.805,6.029,13.2973,4.59983,2470.203,2020-6-10T02:55:24Z
2020-06-10T00:57:44Z,42.805,6.029,13.2977,4.59985,2470.203,2020-6-10T02:58:28Z
2020-06-10T01:00:47Z,42.805,6.029,13.2977,4.59984,2470.227,2020-6-10T03:01:31Z
2020-06-10T01:03:50Z,42.805,6.029,13.2975,4.59983,2470.18,2020-6-10T03:04:34Z
2020-06-10T01:06:53Z,42.805,6.029,13.2976,4.59998,2470.194,2020-6-10T03:07:37Z
2020-06-10T01:09:57Z,42.805,6.029,13.2976,4.59988,2470.18,2020-6-10T03:10:41Z
2020-06-10T01:13:00Z,42.805,6.029,13.2974,4.59985,2470.18,2020-6-10T03:13:44Z
2020-06-10T01:16:03Z,42.805,6.029,13.2974,4.59989,2470.18,2020-6-10T03:16:47Z
2020-06-10T01:19:07Z,42.805,6.029,13.2976,4.59986,2470.203,2020-6-10T03:19:50Z
2020-06-10T01:22:10Z,42.805,6.029,13.2979,4.59996,2470.203,2020-6-10T03:22:54Z
2020-06-10T01:25:13Z,42.805,6.029,13.2980,4.59998,2470.18,2020-6-10T03:25:57Z
2020-06-10T01:28:16Z,42.805,6.029,13.2980,4.59991,2470.156,2020-6-10T03:29:00Z
2020-06-10T01:31:19Z,42.805,6.029,13.2978,4.59991,2470.156,2020-6-10T03:32:03Z
2020-06-10T01:34:23Z,42.805,6.029,13.2974,4.59986,2470.156,2020-6-10T03:35:07Z
2020-06-10T01:37:26Z,42.805,6.029,13.2981,4.59994,2470.156,2020-6-10T03:38:10Z
2020-06-10T01:40:29Z,42.805,6.029,13.2977,4.59987,2470.194,2020-6-10T03:41:13Z
2020-06-10T01:43:33Z,42.805,6.029,13.2974,4.59988,2470.171,2020-6-10T03:44:17Z
2020-06-10T01:46:36Z,42.805,6.029,13.2974,4.59983,2470.147,2020-6-10T03:47:20Z
2020-06-10T01:49:39Z,42.805,6.029,13.2968,4.59983,2470.147,2020-6-10T03:50:23Z
2020-06-10T01:52:42Z,42.805,6.029,13.2974,4.59983,2470.156,2020-6-10T03:53:26Z
2020-06-10T01:55:45Z,42.805,6.029,13.2977,4.59986,2470.171,2020-6-10T03:56:29Z
2020-06-10T01:58:49Z,42.805,6.029,13.2974,4.59981,2470.156,2020-6-10T03:59:33Z
2020-06-10T02:01:52Z,42.805,6.029,13.2979,4.59984,2470.18,2020-6-10T04:02:36Z
2020-06-10T02:04:55Z,42.805,6.029,13.2978,4.59982,2470.133,2020-6-10T04:05:39Z
2020-06-10T02:07:58Z,42.805,6.029,13.2979,4.59986,2470.147,2020-6-10T04:08:42Z
2020-06-10T02:11:02Z,42.805,6.029,13.2976,4.60004,2470.147,2020-6-10T04:11:46Z
2020-06-10T02:14:05Z,42.805,6.029,13.2974,4.59996,2470.171,2020-6-10T04:14:49Z
2020-06-10T02:17:08Z,42.805,6.029,13.2971,4.59993,2470.133,2020-6-10T04:17:52Z
2020-06-10T02:20:11Z,42.805,6.029,13.2974,4.59997,2470.133,2020-6-10T04:20:55Z
2020-06-10T02:23:15Z,42.805,6.029,13.2974,4.59984,2470.133,2020-6-10T04:23:59Z
2020-06-10T02:26:18Z,42.805,6.029,13.2970,4.59982,2470.156,2020-6-10T04:27:02Z
2020-06-10T02:29:21Z,42.805,6.029,13.2974,4.59984,2470.096,2020-6-10T04:30:05Z
2020-06-10T02:32:24Z,42.805,6.029,13.2970,4.59981,2470.156,2020-6-10T04:33:08Z
2020-06-10T02:35:28Z,42.805,6.029,13.2975,4.59989,2470.133,2020-6-10T04:36:12Z
2020-06-10T02:38:31Z,42.805,6.029,13.2975,4.59981,2470.133,2020-6-10T04:39:15Z
2020-06-10T02:41:34Z,42.805,6.029,13.2975,4.59983,2470.171,2020-6-10T04:42:18Z
2020-06-10T02:44:37Z,42.805,6.029,13.2975,4.59988,2470.171,2020-6-10T04:45:21Z
2020-06-10T02:47:41Z,42.805,6.029,13.2972,4.59984,2470.156,2020-6-10T04:48:25Z
2020-06-10T02:50:44Z,42.805,6.029,13.2974,4.59983,2470.156,2020-6-10T04:51:28Z
2020-06-10T02:53:47Z,42.805,6.029,13.2979,4.59982,2470.133,2020-6-10T04:54:31Z
2020-06-10T02:56:50Z,42.805,6.029,13.2978,4.59980,2470.143,2020-6-10T04:57:34Z
2020-06-10T02:59:54Z,42.805,6.029,13.2974,4.59989,2470.11,2020-6-10T05:00:38Z
2020-06-10T03:02:57Z,42.805,6.029,13.2973,4.59985,2470.133,2020-6-10T05:03:41Z
2020-06-10T03:06:00Z,42.805,6.029,13.2977,4.59986,2470.133,2020-6-10T05:06:44Z
2020-06-10T03:09:03Z,42.805,6.029,13.2978,4.59993,2470.147,2020-6-10T05:09:47Z
2020-06-10T03:12:07Z,42.805,6.029,13.2969,4.59991,2470.133,2020-6-10T05:12:51Z
2020-06-10T03:15:10Z,42.805,6.029,13.2974,4.59981,2470.147,2020-6-10T05:15:54Z
2020-06-10T03:18:13Z,42.805,6.029,13.2980,4.59996,2470.156,2020-6-10T05:18:57Z
2020-06-10T03:21:17Z,42.805,6.029,13.2978,4.60001,2470.133,2020-6-10T05:22:01Z
2020-06-10T03:24:20Z,42.805,6.029,13.2984,4.59995,2470.156,2020-6-10T05:25:04Z
2020-06-10T03:27:23Z,42.805,6.029,13.2974,4.59986,2470.124,2020-6-10T05:28:07Z
2020-06-10T03:30:26Z,42.805,6.029,13.2972,4.59984,2470.124,2020-6-10T05:31:10Z
2020-06-10T03:33:30Z,42.805,6.029,13.2974,4.59988,2470.11,2020-6-10T05:34:14Z
2020-06-10T03:36:33Z,42.805,6.029,13.2976,4.59985,2470.133,2020-6-10T05:37:17Z
2020-06-10T03:39:36Z,42.805,6.029,13.2979,4.59985,2470.087,2020-6-10T05:40:20Z
2020-06-10T03:42:39Z,42.805,6.029,13.2972,4.59990,2470.087,2020-6-10T05:43:23Z
2020-06-10T03:45:43Z,42.805,6.029,13.2974,4.59991,2470.124,2020-6-10T05:46:27Z
2020-06-10T03:48:46Z,42.805,6.029,13.2977,4.59991,2470.087,2020-6-10T05:49:30Z
2020-06-10T03:51:49Z,42.805,6.029,13.2974,4.59980,2470.147,2020-6-10T05:52:33Z
2020-06-10T03:54:52Z,42.805,6.029,13.2974,4.59987,2470.133,2020-6-10T05:55:36Z
2020-06-10T03:57:56Z,42.805,6.029,13.2979,4.59987,2470.147,2020-6-10T05:58:40Z
2020-06-10T04:00:59Z,42.805,6.029,13.2979,4.60000,2470.133,2020-6-10T06:01:43Z
2020-06-10T04:04:02Z,42.805,6.029,13.2974,4.59990,2470.147,2020-6-10T06:04:46Z
2020-06-10T04:07:05Z,42.805,6.029,13.2976,4.59981,2470.11,2020-6-10T06:07:49Z
2020-06-10T04:10:09Z,42.805,6.029,13.2979,4.59983,2470.124,2020-6-10T06:10:53Z
2020-06-10T04:13:12Z,42.805,6.029,13.2974,4.59987,2470.087,2020-6-10T06:13:56Z
2020-06-10T04:16:15Z,42.805,6.029,13.2972,4.59980,2470.133,2020-6-10T06:16:59Z
2020-06-10T04:19:18Z,42.805,6.029,13.2971,4.59980,2470.096,2020-6-10T06:20:02Z
2020-06-10T04:22:22Z,42.805,6.029,13.2974,4.59986,2470.087,2020-6-10T06:23:06Z
2020-06-10T04:25:25Z,42.805,6.029,13.2976,4.59988,2470.11,2020-6-10T06:26:09Z
2020-06-10T04:28:28Z,42.805,6.029,13.2972,4.59981,2470.077,2020-6-10T06:29:12Z
2020-06-10T04:31:31Z,42.805,6.029,13.2975,4.59981,2470.096,2020-6-10T06:32:15Z
2020-06-10T04:34:35Z,42.805,6.029,13.2971,4.59986,2470.073,2020-6-10T06:35:19Z
2020-06-10T04:37:38Z,42.805,6.029,13.2982,4.59992,2470.124,2020-6-10T06:38:22Z
2020-06-10T04:40:41Z,42.805,6.029,13.2971,4.59990,2470.063,2020-6-10T06:41:25Z
2020-06-10T04:43:44Z,42.805,6.029,13.2971,4.59988,2470.1,2020-6-10T06:44:28Z
2020-06-10T04:46:47Z,42.805,6.029,13.2976,4.59986,2470.1,2020-6-10T06:47:31Z
2020-06-10T04:49:51Z,42.805,6.029,13.2972,4.59984,2470.124,2020-6-10T06:50:35Z
2020-06-10T04:52:54Z,42.805,6.029,13.2970,4.59991,2470.1,2020-6-10T06:53:38Z
2020-06-10T04:55:57Z,42.805,6.029,13.2975,4.59988,2470.077,2020-6-10T06:56:41Z
2020-06-10T04:59:00Z,42.805,6.029,13.2977,4.59991,2470.087,2020-6-10T06:59:44Z
2020-06-10T05:02:04Z,42.805,6.029,13.2973,4.59985,2470.077,2020-6-10T07:02:48Z
2020-06-10T05:05:07Z,42.805,6.029,13.2978,4.59988,2470.073,2020-6-10T07:05:51Z
2020-06-10T05:08:10Z,42.805,6.029,13.2972,4.59979,2470.1,2020-6-10T07:08:54Z
2020-06-10T05:11:14Z,42.805,6.029,13.2975,4.59982,2470.1,2020-6-10T07:11:58Z
2020-06-10T05:14:17Z,42.805,6.029,13.2973,4.59983,2470.11,2020-6-10T07:15:01Z
2020-06-10T05:17:20Z,42.805,6.029,13.2978,4.59985,2470.087,2020-6-10T07:18:04Z
2020-06-10T05:20:24Z,42.805,6.029,13.2979,4.59999,2470.087,2020-6-10T07:21:08Z
2020-06-10T05:23:27Z,42.805,6.029,13.2977,4.60003,2470.1,2020-6-10T07:24:11Z
2020-06-10T05:26:30Z,42.805,6.029,13.2976,4.59991,2470.124,2020-6-10T07:27:14Z
2020-06-10T05:29:34Z,42.805,6.029,13.2976,4.59994,2470.087,2020-6-10T07:30:18Z
2020-06-10T05:32:37Z,42.805,6.029,13.2971,4.59983,2470.077,2020-6-10T07:33:21Z
2020-06-10T05:35:40Z,42.805,6.029,13.2977,4.59988,2470.11,2020-6-10T07:36:24Z
2020-06-10T05:38:43Z,42.805,6.029,13.2975,4.59993,2470.087,2020-6-10T07:39:27Z
2020-06-10T05:41:47Z,42.805,6.029,13.2970,4.59987,2470.087,2020-6-10T07:42:31Z
2020-06-10T05:44:50Z,42.805,6.029,13.2974,4.59981,2470.087,2020-6-10T07:45:34Z
2020-06-10T05:47:53Z,42.805,6.029,13.2974,4.59982,2470.087,2020-6-10T07:48:37Z
2020-06-10T05:50:56Z,42.805,6.029,13.2979,4.59983,2470.077,2020-6-10T07:51:40Z
2020-06-10T05:54:00Z,42.805,6.029,13.2985,4.60003,2470.1,2020-6-10T07:54:44Z
2020-06-10T05:57:03Z,42.805,6.029,13.2981,4.59993,2470.073,2020-6-10T07:57:47Z
2020-06-10T06:00:06Z,42.805,6.029,13.2976,4.59981,2470.077,2020-6-10T08:00:50Z
2020-06-10T06:03:09Z,42.805,6.029,13.2977,4.59992,2470.1,2020-6-10T08:03:53Z
2020-06-10T06:06:13Z,42.805,6.029,13.2978,4.60009,2470.087,2020-6-10T08:06:57Z
2020-06-10T06:09:16Z,42.805,6.029,13.2972,4.59987,2470.063,2020-6-10T08:10:00Z
2020-06-10T06:12:19Z,42.805,6.029,13.2977,4.59983,2470.087,2020-6-10T08:13:03Z
2020-06-10T06:15:22Z,42.805,6.029,13.2973,4.59986,2470.087,2020-6-10T08:16:06Z
2020-06-10T06:18:26Z,42.805,6.029,13.2977,4.59989,2470.087,2020-6-10T08:19:10Z
2020-06-10T06:21:29Z,42.805,6.029,13.2973,4.59988,2470.124,2020-6-10T08:22:13Z
2020-06-10T06:24:32Z,42.805,6.029,13.2972,4.59981,2470.1,2020-6-10T08:25:16Z
2020-06-10T06:27:35Z,42.805,6.029,13.2982,4.59982,2470.1,2020-6-10T08:28:19Z
2020-06-10T06:30:39Z,42.805,6.029,13.2978,4.59981,2470.11,2020-6-10T08:31:23Z
2020-06-10T06:33:42Z,42.805,6.029,13.2972,4.59983,2470.087,2020-6-10T08:34:26Z
2020-06-10T06:36:45Z,42.805,6.029,13.2974,4.59983,2470.1,2020-6-10T08:37:29Z
2020-06-10T06:39:49Z,42.805,6.029,13.2974,4.59994,2470.1,2020-6-10T08:40:33Z
2020-06-10T06:42:52Z,42.805,6.029,13.2979,4.59986,2470.124,2020-6-10T08:43:36Z
2020-06-10T06:45:55Z,42.805,6.029,13.2980,4.59987,2470.1,2020-6-10T08:46:39Z
2020-06-10T06:48:58Z,42.805,6.029,13.2974,4.59987,2470.087,2020-6-10T08:49:42Z
2020-06-10T06:52:01Z,42.805,6.029,13.2976,4.59995,2470.087,2020-6-10T08:52:45Z
2020-06-10T06:55:05Z,42.805,6.029,13.2975,4.59986,2470.124,2020-6-10T08:55:49Z
2020-06-10T06:58:08Z,42.805,6.029,13.2974,4.59982,2470.087,2020-6-10T08:58:52Z
2020-06-10T07:01:11Z,42.805,6.029,13.2972,4.59981,2470.124,2020-6-10T09:01:55Z
2020-06-10T07:04:14Z,42.805,6.029,13.2974,4.59981,2470.11,2020-6-10T09:04:58Z
2020-06-10T07:07:18Z,42.805,6.029,13.2971,4.59986,2470.124,2020-6-10T09:08:02Z
2020-06-10T07:10:21Z,42.805,6.029,13.2976,4.59991,2470.11,2020-6-10T09:11:05Z
2020-06-10T07:13:24Z,42.805,6.029,13.2975,4.59989,2470.124,2020-6-10T09:14:08Z
2020-06-10T07:16:27Z,42.805,6.029,13.2976,4.60001,2470.124,2020-6-10T09:17:11Z
2020-06-10T07:19:31Z,42.805,6.029,13.2972,4.59983,2470.11,2020-6-10T09:20:15Z
2020-06-10T07:22:34Z,42.805,6.029,13.2981,4.59992,2470.133,2020-6-10T09:23:18Z
2020-06-10T07:25:37Z,42.805,6.029,13.2974,4.59986,2470.133,2020-6-10T09:26:21Z
2020-06-10T07:28:41Z,42.805,6.029,13.2976,4.59986,2470.11,2020-6-10T09:29:25Z
2020-06-10T07:31:44Z,42.805,6.029,13.2977,4.60001,2470.087,2020-6-10T09:32:28Z
2020-06-10T07:34:47Z,42.805,6.029,13.2983,4.59992,2470.147,2020-6-10T09:35:31Z
2020-06-10T07:37:51Z,42.805,6.029,13.2979,4.59997,2470.11,2020-6-10T09:38:35Z
2020-06-10T07:40:54Z,42.805,6.029,13.2978,4.59996,2470.11,2020-6-10T09:41:38Z
2020-06-10T07:43:57Z,42.805,6.029,13.2979,4.59997,2470.124,2020-6-10T09:44:41Z
2020-06-10T07:47:01Z,42.805,6.029,13.2979,4.59988,2470.124,2020-6-10T09:47:45Z
2020-06-10T07:50:04Z,42.805,6.029,13.2977,4.59985,2470.11,2020-6-10T09:50:48Z
2020-06-10T07:53:07Z,42.805,6.029,13.2972,4.59985,2470.147,2020-6-10T09:53:51Z
2020-06-10T07:56:11Z,42.805,6.029,13.2973,4.59982,2470.11,2020-6-10T09:56:55Z
2020-06-10T07:59:14Z,42.805,6.029,13.2975,4.59983,2470.147,2020-6-10T09:59:58Z
2020-06-10T08:02:17Z,42.805,6.029,13.2979,4.59989,2470.133,2020-6-10T10:03:01Z
2020-06-10T08:05:21Z,42.805,6.029,13.2973,4.59987,2470.133,2020-6-10T10:06:05Z
2020-06-10T08:08:24Z,42.805,6.029,13.2980,4.59989,2470.147,2020-6-10T10:09:08Z
2020-06-10T08:11:27Z,42.805,6.029,13.2977,4.59983,2470.124,2020-6-10T10:12:11Z
2020-06-10T08:14:30Z,42.805,6.029,13.2976,4.59986,2470.147,2020-6-10T10:15:14Z
2020-06-10T08:17:34Z,42.805,6.029,13.2971,4.59986,2470.133,2020-6-10T10:18:18Z
2020-06-10T08:20:37Z,42.805,6.029,13.2977,4.59984,2470.171,2020-6-10T10:21:21Z
2020-06-10T08:23:40Z,42.805,6.029,13.2975,4.59983,2470.133,2020-6-10T10:24:24Z
2020-06-10T08:26:43Z,42.805,6.029,13.2973,4.59982,2470.147,2020-6-10T10:27:27Z
2020-06-10T08:29:46Z,42.805,6.029,13.2978,4.59989,2470.124,2020-6-10T10:30:30Z
2020-06-10T08:32:50Z,42.805,6.029,13.2976,4.59988,2470.133,2020-6-10T10:33:34Z
2020-06-10T08:35:53Z,42.805,6.029,13.2972,4.59982,2470.147,2020-6-10T10:36:37Z
2020-06-10T08:38:56Z,42.805,6.029,13.2976,4.59983,2470.133,2020-6-10T10:39:40Z
2020-06-10T08:42:00Z,42.805,6.029,13.2977,4.59992,2470.171,2020-6-10T10:42:43Z
2020-06-10T08:45:03Z,42.805,6.029,13.2979,4.59992,2470.147,2020-6-10T10:45:47Z
2020-06-10T08:48:06Z,42.805,6.029,13.2978,4.59990,2470.133,2020-6-10T10:48:50Z
2020-06-10T08:51:09Z,42.805,6.029,13.2973,4.59984,2470.156,2020-6-10T10:51:53Z
2020-06-10T08:54:12Z,42.805,6.029,13.2977,4.59981,2470.156,2020-6-10T10:54:56Z
2020-06-10T08:57:16Z,42.805,6.029,13.2976,4.59981,2470.133,2020-6-10T10:58:00Z
2020-06-10T09:00:19Z,42.805,6.029,13.2980,4.59992,2470.217,2020-6-10T11:01:03Z
2020-06-10T09:03:22Z,42.805,6.029,13.2976,4.59984,2470.156,2020-6-10T11:04:06Z
2020-06-10T09:06:25Z,42.805,6.029,13.2975,4.59993,2470.156,2020-6-10T11:07:09Z
2020-06-10T09:09:29Z,42.805,6.029,13.2980,4.59990,2470.156,2020-6-10T11:10:13Z
2020-06-10T09:12:32Z,42.805,6.029,13.2976,4.59981,2470.156,2020-6-10T11:13:16Z
2020-06-10T09:15:35Z,42.805,6.029,13.2975,4.59982,2470.171,2020-6-10T11:16:19Z
2020-06-10T09:18:38Z,42.805,6.029,13.2977,4.59988,2470.18,2020-6-10T11:19:22Z
2020-06-10T09:21:42Z,42.805,6.029,13.2979,4.59988,2470.156,2020-6-10T11:22:26Z
2020-06-10T09:24:45Z,42.805,6.029,13.2978,4.59993,2470.18,2020-6-10T11:25:29Z
2020-06-10T09:27:48Z,42.805,6.029,13.2973,4.59992,2470.156,2020-6-10T11:28:32Z
2020-06-10T09:30:51Z,42.805,6.029,13.2976,4.59983,2470.171,2020-6-10T11:31:35Z
2020-06-10T09:33:55Z,42.805,6.029,13.2979,4.59991,2470.18,2020-6-10T11:34:39Z
2020-06-10T09:36:58Z,42.805,6.029,13.2971,4.59977,2470.194,2020-6-10T11:37:42Z
2020-06-10T09:40:01Z,42.805,6.029,13.2974,4.59983,2470.194,2020-6-10T11:40:45Z
2020-06-10T09:43:04Z,42.805,6.029,13.2978,4.59981,2470.194,2020-6-10T11:43:48Z
2020-06-10T09:46:08Z,42.805,6.029,13.2974,4.59980,2470.18,2020-6-10T11:46:52Z
2020-06-10T09:49:11Z,42.805,6.029,13.2983,4.60007,2470.156,2020-6-10T11:49:55Z
2020-06-10T09:52:14Z,42.805,6.029,13.2976,4.59989,2470.194,2020-6-10T11:52:58Z
2020-06-10T09:55:17Z,42.805,6.029,13.2968,4.59986,2470.156,2020-6-10T11:56:01Z
2020-06-10T09:58:20Z,42.805,6.029,13.2979,4.59988,2470.194,2020-6-10T11:59:04Z
2020-06-10T10:01:24Z,42.805,6.029,13.2971,4.59979,2470.217,2020-6-10T12:02:08Z
2020-06-10T10:04:27Z,42.805,6.029,13.2973,4.59984,2470.18,2020-6-10T12:05:11Z
2020-06-10T10:07:30Z,42.805,6.029,13.2980,4.59990,2470.171,2020-6-10T12:08:14Z
2020-06-10T10:10:33Z,42.805,6.029,13.2977,4.59992,2470.171,2020-6-10T12:11:17Z
2020-06-10T10:13:37Z,42.805,6.029,13.2977,4.59994,2470.203,2020-6-10T12:14:21Z
2020-06-10T10:16:40Z,42.805,6.029,13.2979,4.59997,2470.203,2020-6-10T12:17:24Z
2020-06-10T10:19:44Z,42.805,6.029,13.2981,4.59993,2470.156,2020-6-10T12:20:28Z
2020-06-10T10:22:47Z,42.805,6.029,13.2977,4.59981,2470.156,2020-6-10T12:23:31Z
2020-06-10T10:25:50Z,42.805,6.029,13.2974,4.59986,2470.156,2020-6-10T12:26:34Z
2020-06-10T10:28:53Z,42.805,6.029,13.2978,4.59984,2470.156,2020-6-10T12:29:37Z
2020-06-10T10:31:57Z,42.805,6.029,13.2974,4.59981,2470.133,2020-6-10T12:32:41Z
2020-06-10T10:35:00Z,42.805,6.029,13.2975,4.59985,2470.171,2020-6-10T12:35:44Z
2020-06-10T10:38:03Z,42.805,6.029,13.2976,4.59999,2470.156,2020-6-10T12:38:47Z
2020-06-10T10:41:06Z,42.805,6.029,13.2982,4.59994,2470.156,2020-6-10T12:41:50Z
2020-06-10T10:44:09Z,42.805,6.029,13.2978,4.59994,2470.156,2020-6-10T12:44:53Z
2020-06-10T10:47:13Z,42.805,6.029,13.2976,4.59986,2470.156,2020-6-10T12:47:57Z
2020-06-10T10:50:16Z,42.805,6.029,13.2971,4.59981,2470.133,2020-6-10T12:51:00Z
2020-06-10T10:53:19Z,42.805,6.029,13.2979,4.59994,2470.156,2020-6-10T12:54:03Z
2020-06-10T10:56:23Z,42.805,6.029,13.2978,4.59991,2470.156,2020-6-10T12:57:07Z
2020-06-10T10:59:26Z,42.805,6.029,13.2979,4.59984,2470.156,2020-6-10T13:00:10Z
2020-06-10T11:02:29Z,42.805,6.029,13.2976,4.59984,2470.147,2020-6-10T13:03:13Z
2020-06-10T11:05:33Z,42.805,6.029,13.2973,4.59987,2470.133,2020-6-10T13:06:17Z
2020-06-10T11:08:36Z,42.805,6.029,13.2979,4.59983,2470.11,2020-6-10T13:09:20Z
2020-06-10T11:11:39Z,42.805,6.029,13.2979,4.59982,2470.156,2020-6-10T13:12:23Z
2020-06-10T11:14:43Z,42.805,6.029,13.2975,4.59991,2470.133,2020-6-10T13:15:27Z
2020-06-10T11:17:46Z,42.805,6.029,13.2973,4.59988,2470.11,2020-6-10T13:18:30Z
2020-06-10T11:20:49Z,42.805,6.029,13.2974,4.59981,2470.133,2020-6-10T13:21:33Z
2020-06-10T11:23:53Z,42.805,6.029,13.2975,4.59983,2470.156,2020-6-10T13:24:37Z
2020-06-10T11:26:56Z,42.805,6.029,13.2981,4.59992,2470.11,2020-6-10T13:27:40Z
2020-06-10T11:29:59Z,42.805,6.029,13.2973,4.59988,2470.133,2020-6-10T13:30:43Z
2020-06-10T11:33:03Z,42.805,6.029,13.2976,4.59989,2470.11,2020-6-10T13:33:47Z
2020-06-10T11:36:06Z,42.805,6.029,13.2976,4.59990,2470.156,2020-6-10T13:36:50Z
2020-06-10T11:39:09Z,42.805,6.029,13.2974,4.59982,2470.133,2020-6-10T13:39:53Z
2020-06-10T11:42:12Z,42.805,6.029,13.2979,4.59990,2470.124,2020-6-10T13:42:56Z
2020-06-10T11:45:15Z,42.805,6.029,13.2975,4.59985,2470.124,2020-6-10T13:45:59Z
2020-06-10T11:48:19Z,42.805,6.029,13.2979,4.60001,2470.133,2020-6-10T13:49:03Z
2020-06-10T11:51:22Z,42.805,6.029,13.2975,4.59983,2470.147,2020-6-10T13:52:06Z
2020-06-10T11:54:25Z,42.805,6.029,13.2979,4.59998,2470.124,2020-6-10T13:55:09Z
2020-06-10T11:57:28Z,42.805,6.029,13.2974,4.59984,2470.11,2020-6-10T13:58:12Z
2020-06-10T12:00:32Z,42.805,6.029,13.2974,4.59988,2470.124,2020-6-10T14:01:16Z
2020-06-10T12:03:35Z,42.805,6.029,13.2980,4.59991,2470.133,2020-6-10T14:04:19Z
2020-06-10T12:06:38Z,42.805,6.029,13.2970,4.59980,2470.087,2020-6-10T14:07:22Z
2020-06-10T12:09:42Z,42.805,6.029,13.2976,4.59981,2470.124,2020-6-10T14:10:26Z
2020-06-10T12:12:45Z,42.805,6.029,13.2979,4.59990,2470.11,2020-6-10T14:13:29Z
2020-06-10T12:15:48Z,42.805,6.029,13.2974,4.59986,2470.087,2020-6-10T14:16:32Z
2020-06-10T12:18:51Z,42.805,6.029,13.2974,4.59988,2470.124,2020-6-10T14:19:35Z
2020-06-10T12:21:55Z,42.805,6.029,13.2979,4.59991,2470.11,2020-6-10T14:22:39Z
2020-06-10T12:24:58Z,42.805,6.029,13.2974,4.59981,2470.147,2020-6-10T14:25:42Z
2020-06-10T12:28:01Z,42.805,6.029,13.2977,4.59985,2470.11,2020-6-10T14:28:45Z
2020-06-10T12:31:05Z,42.805,6.029,13.2976,4.59991,2470.11,2020-6-10T14:31:49Z
2020-06-10T12:34:08Z,42.805,6.029,13.2974,4.59986,2470.124,2020-6-10T14:34:52Z
2020-06-10T12:37:11Z,42.805,6.029,13.2974,4.59995,2470.133,2020-6-10T14:37:55Z
2020-06-10T12:40:15Z,42.805,6.029,13.2976,4.59990,2470.124,2020-6-10T14:40:59Z
2020-06-10T12:43:18Z,42.805,6.029,13.2974,4.59984,2470.11,2020-6-10T14:44:02Z
2020-06-10T12:46:21Z,42.805,6.029,13.2975,4.59985,2470.147,2020-6-10T14:47:05Z
2020-06-10T12:49:24Z,42.805,6.029,13.2976,4.59981,2470.11,2020-6-10T14:50:08Z
2020-06-10T12:52:28Z,42.805,6.029,13.2974,4.59993,2470.063,2020-6-10T14:53:12Z
2020-06-10T12:55:31Z,42.805,6.029,13.2979,4.59991,2470.087,2020-6-10T14:56:15Z
2020-06-10T12:58:34Z,42.805,6.029,13.2974,4.59976,2470.073,2020-6-10T14:59:18Z
2020-06-10T13:01:37Z,42.805,6.029,13.2978,4.59990,2470.087,2020-6-10T15:02:21Z
2020-06-10T13:04:41Z,42.805,6.029,13.2975,4.59989,2470.087,2020-6-10T15:05:25Z
2020-06-10T13:07:44Z,42.805,6.029,13.2979,4.59986,2470.1,2020-6-10T15:08:28Z
2020-06-10T13:10:47Z,42.805,6.029,13.2976,4.59991,2470.11,2020-6-10T15:11:31Z
2020-06-10T13:13:50Z,42.805,6.029,13.2976,4.59987,2470.077,2020-6-10T15:14:34Z
2020-06-10T13:16:53Z,42.805,6.029,13.2978,4.59983,2470.087,2020-6-10T15:17:37Z
2020-06-10T13:19:57Z,42.805,6.029,13.2979,4.59990,2470.087,2020-6-10T15:20:41Z
2020-06-10T13:23:00Z,42.805,6.029,13.2969,4.59983,2470.11,2020-6-10T15:23:44Z
2020-06-10T13:26:03Z,42.805,6.029,13.2981,4.59991,2470.087,2020-6-10T15:26:47Z
2020-06-10T13:29:06Z,42.805,6.029,13.2971,4.59986,2470.11,2020-6-10T15:29:50Z
2020-06-10T13:32:10Z,42.805,6.029,13.2976,4.59989,2470.063,2020-6-10T15:32:54Z
2020-06-10T13:35:13Z,42.805,6.029,13.2978,4.59989,2470.1,2020-6-10T15:35:57Z
2020-06-10T13:38:16Z,42.805,6.029,13.2976,4.59987,2470.087,2020-6-10T15:39:00Z
2020-06-10T13:41:19Z,42.805,6.029,13.2974,4.59998,2470.11,2020-6-10T15:42:03Z
2020-06-10T13:44:23Z,42.805,6.029,13.2974,4.59990,2470.087,2020-6-10T15:45:07Z
2020-06-10T13:47:26Z,42.805,6.029,13.2972,4.59985,2470.087,2020-6-10T15:48:10Z
2020-06-10T13:50:29Z,42.805,6.029,13.2970,4.59985,2470.063,2020-6-10T15:51:13Z
2020-06-10T13:53:32Z,42.805,6.029,13.2975,4.59993,2470.053,2020-6-10T15:54:16Z
2020-06-10T13:56:36Z,42.805,6.029,13.2980,4.59995,2470.063,2020-6-10T15:57:20Z
2020-06-10T13:59:39Z,42.805,6.029,13.2977,4.59988,2470.087,2020-6-10T16:00:23Z
2020-06-10T14:02:42Z,42.805,6.029,13.2977,4.59986,2470.063,2020-6-10T16:03:26Z
2020-06-10T14:05:45Z,42.805,6.029,13.2976,4.59987,2470.087,2020-6-10T16:06:29Z
2020-06-10T14:08:48Z,42.805,6.029,13.2972,4.59981,2470.087,2020-6-10T16:09:32Z
2020-06-10T14:11:52Z,42.805,6.029,13.2976,4.59983,2470.04,2020-6-10T16:12:36Z
2020-06-10T14:14:55Z,42.805,6.029,13.2974,4.59987,2470.087,2020-6-10T16:15:39Z
2020-06-10T14:17:58Z,42.805,6.029,13.2970,4.59978,2470.087,2020-6-10T16:18:42Z
2020-06-10T14:21:02Z,42.805,6.029,13.2976,4.59985,2470.077,2020-6-10T16:21:46Z
2020-06-10T14:24:05Z,42.805,6.029,13.2980,4.59990,2470.063,2020-6-10T16:24:49Z
2020-06-10T14:27:08Z,42.805,6.029,13.2974,4.59990,2470.053,2020-6-10T16:27:52Z
2020-06-10T14:30:11Z,42.805,6.029,13.2969,4.59988,2470.063,2020-6-10T16:30:55Z
2020-06-10T14:33:14Z,42.805,6.029,13.2973,4.59988,2470.087,2020-6-10T16:33:58Z
2020-06-10T14:36:18Z,42.805,6.029,13.2974,4.59985,2470.063,2020-6-10T16:37:02Z
2020-06-10T14:39:21Z,42.805,6.029,13.2973,4.59981,2470.087,2020-6-10T16:40:05Z
2020-06-10T14:42:24Z,42.805,6.029,13.2970,4.59979,2470.1,2020-6-10T16:43:08Z
2020-06-10T14:45:28Z,42.805,6.029,13.2974,4.59978,2470.077,2020-6-10T16:46:12Z
2020-06-10T14:48:31Z,42.805,6.029,13.2972,4.59979,2470.063,2020-6-10T16:49:15Z
2020-06-10T14:51:35Z,42.805,6.029,13.2979,4.59991,2470.063,2020-6-10T16:52:19Z
2020-06-10T14:54:38Z,42.805,6.029,13.2972,4.59991,2470.1,2020-6-10T16:55:22Z
2020-06-10T14:57:41Z,42.805,6.029,13.2977,4.59987,2470.053,2020-6-10T16:58:25Z
2020-06-10T15:00:45Z,42.805,6.029,13.2974,4.59985,2470.04,2020-6-10T17:01:29Z
2020-06-10T15:03:48Z,42.805,6.029,13.2979,4.59991,2470.017,2020-6-10T17:04:32Z
2020-06-10T15:06:51Z,42.805,6.029,13.2972,4.59986,2470.053,2020-6-10T17:07:35Z
2020-06-10T15:09:54Z,42.805,6.029,13.2974,4.59980,2470.04,2020-6-10T17:10:38Z
2020-06-10T15:12:58Z,42.805,6.029,13.2973,4.59983,2470.04,2020-6-10T17:13:42Z
2020-06-10T15:16:01Z,42.805,6.029,13.2971,4.59978,2470.04,2020-6-10T17:16:45Z